This is the latest recevied weather packets stored in our database for station/object KC5CAM-13. If no packets are shown the sender has not sent any weather packets the latest 10 day(s).
| Time | Temp. | Humidity | Pressure | Rain* | Wind** | Luminosity | Snow |
|---|---|---|---|---|---|---|---|
| 1777841903 | 27.22° C | 34% | 1017.6 hPa | 0 mm | - | 582 W/m² | - |
| 1777841600 | 27.78° C | 35% | 1017.8 hPa | 0 mm | - | 590 W/m² | - |
| 1777841297 | 27.22° C | 35% | 1017.9 hPa | 0 mm | - | 605 W/m² | - |
| 1777840994 | 27.22° C | 34% | 1018.1 hPa | 0 mm | - | 605 W/m² | - |
| 1777840692 | 27.78° C | 36% | 1018 hPa | 0 mm | - | 592 W/m² | - |
| 1777840389 | 27.78° C | 35% | 1018.1 hPa | 0 mm | - | 602 W/m² | - |
| 1777840086 | 28.33° C | 34% | 1018.4 hPa | 0 mm | - | 606 W/m² | - |
| 1777839784 | 27.22° C | 37% | 1018.3 hPa | 0 mm | - | 603 W/m² | - |
| 1777839481 | 27.22° C | 35% | 1018.6 hPa | 0 mm | - | 610 W/m² | - |
| 1777839178 | 27.22° C | 37% | 1018.8 hPa | 0 mm | - | 607 W/m² | - |
| 1777838876 | 27.22° C | 38% | 1018.8 hPa | 0 mm | - | 677 W/m² | - |
| 1777838571 | 27.22° C | 37% | 1018.7 hPa | 0 mm | - | 115 W/m² | - |
| 1777838269 | 27.78° C | 37% | 1018.8 hPa | 0 mm | - | 699 W/m² | - |
| 1777837965 | 27.22° C | 36% | 1018.7 hPa | 0 mm | - | 608 W/m² | - |
| 1777837663 | 27.22° C | 34% | 1019 hPa | 0 mm | - | 719 W/m² | - |
| 1777837358 | 27.22° C | 35% | 1018.8 hPa | 0 mm | - | 722 W/m² | - |
| 1777837055 | 27.78° C | 37% | 1018.9 hPa | 0 mm | - | 723 W/m² | - |
| 1777836751 | 26.67° C | 36% | 1019.4 hPa | 0 mm | - | 699 W/m² | - |
| 1777836447 | 27.78° C | 39% | 1019.2 hPa | 0 mm | - | 750 W/m² | - |
| 1777836142 | 27.22° C | 39% | 1019.2 hPa | 0 mm | - | 752 W/m² | - |
| 1777835839 | 27.22° C | 38% | 1019.3 hPa | 0 mm | - | 661 W/m² | - |
| 1777835536 | 27.22° C | 38% | 1019.4 hPa | 0 mm | - | 756 W/m² | - |
| 1777835233 | 26.67° C | 41% | 1019.4 hPa | 0 mm | - | 747 W/m² | - |
| 1777834930 | 27.22° C | 42% | 1019.5 hPa | 0 mm | - | 759 W/m² | - |
| 1777834627 | 27.22° C | 43% | 1019.7 hPa | 0 mm | - | 758 W/m² | - |
* Rain latest hour (hover to see other rain measurements)
** Current wind speed in m/s (hover to see current wind gust speed)